Regional Weather Roundup
Issued by NWS

Home | Current Version | Previous Version | Graphics & Text | Print | Product List | Glossary On
Versions: 1 2 3 4 5 6 7 8 9 10 11 12 13 14 15 16 17 18 19 20 21 22 23 24 25 26 27
000
ASUS45 KTFX 190610
RWRMT
MONTANA REGIONAL WEATHER ROUNDUP
NATIONAL WEATHER SERVICE GREAT FALLS MT
1200 AM MDT SAT AUG 19 2017

NOTE: "FAIR" INDICATES FEW OR NO CLOUDS BELOW 12000 FEET WITH NO
SIGNIFICANT WEATHER AND/OR OBSTRUCTIONS TO VISIBILITY.

MTZ001>007-043-190700-
WEST OF THE DIVIDE

CITY           SKY/WX    TMP DP  RH WIND       PRES   REMARKS
KALISPELL      MOCLDY    62  38  40 W7        29.91F
MISSOULA       CLOUDY    72  33  24 N5        29.98R
BUTTE          PTCLDY    56  26  31 SE6       30.10F
MULLAN PASS    MOCLDY    57  31  37 VRB5      30.13F
ANACONDA         N/A     72  21  15 W12       30.06S
EUREKA           N/A     66  37  34 MISG      29.88S
HAMILTON         N/A     70  36  28 CALM      30.00S
LIBBY            N/A     63  37  39 CALM      29.90S
RONAN            N/A     73  34  24 W1        30.02S
$$

MTZ008-052>055-190700-
SOUTHWEST MONTANA

CITY           SKY/WX    TMP DP  RH WIND       PRES   REMARKS
BOZEMAN        CLEAR     53  42  66 SE8       30.01S
DILLON         CLEAR     63  32  31 S10       30.07R
W YELLOWSTONE  PTCLDY    54  36  50 CALM      30.21F
ENNIS          PTCLDY    63  36  36 S9        30.12F
THREE FORKS      N/A     55  33  43 CALM      30.00R
$$

MTZ009-010-012-014-046-048-049-054-190700-
EAST SLOPES AND CENTRAL MONTANA

CITY           SKY/WX    TMP DP  RH WIND       PRES   REMARKS
CUT BANK       MOCLDY    64  34  32 SW9       29.87S
GREAT FALLS    CLOUDY    73  29  19 SW10      29.89F
MALMSTROM AFB  MOCLDY    77  30  17 W13       29.88S
HELENA         MOCLDY    77  31  18 W9        29.97S HAZE
AUGUSTA        MOCLDY    67  32  26 MISG      29.94S
BOWMANS CRNR     N/A     69  29  22 SW20      29.93F
CHOTEAU          N/A     73  34  23 W13G33    29.91F
FAIRFIELD      MOCLDY    71  34  24 SW14      29.89F
POWER            N/A     70  31  23 SW8       29.89S
RAYNESFORD     MOCLDY    76  26  15 W13       29.92S
ULM            MOCLDY    75  28  18 W14       29.90S
$$

MTZ011-013-016-021-045-047-050-051-190700-
NORTH CENTRAL MONTANA

CITY           SKY/WX    TMP DP  RH WIND       PRES   REMARKS
HAVRE          MOCLDY    69  40  34 CALM      29.77F
LEWISTOWN      CLOUDY    58  31  35 SE8       29.92F
N BAR RANCH    MOCLDY    55  30  38 CALM      29.97F
CHINOOK          N/A     66  39  37 CALM      29.76F
DENTON           N/A     69  25  18 SW15      29.84F
GEYSER           N/A     64  27  24 W9        29.91S
GRASS RANGE      N/A     63  28  26 W3        29.87F
JUDITH GAP     MOCLDY    63  26  24 S5        29.96F
WINIFRED       MOCLDY    72  23  16 SW8       29.87F
$$

MTZ017>020-022>027-061-062-190700-
NORTHEAST MONTANA

CITY           SKY/WX    TMP DP  RH WIND       PRES   REMARKS
GLASGOW        CLEAR     68  37  32 E14       29.76F
JORDAN           N/A     59  31  34 W5        29.81F
SIDNEY         CLEAR     68  50  52 S7        29.83S
WOLF POINT     CLEAR     67  45  45 E5        29.79S
MALTA          CLEAR     59  48  67 CALM      29.75S
PLENTYWOOD       N/A     66  48  52 SE10      29.81F
POPLAR           N/A     70  48  46 SE7       29.79F
$$

MTZ028>42-056>058-190700-
SOUTHCENTRAL AND SOUTHEAST MONTANA

CITY           SKY/WX    TMP DP  RH WIND       PRES   REMARKS
BAKER          CLEAR     61  42  49 SE12      29.90S
BILLINGS       CLEAR     74  32  21 SW12      29.90F
LIVINGSTON     CLEAR     61  31  32 NW13      30.00S
MILES CITY     CLEAR     72  35  25 S9        29.82F
BIG TIMBER     CLEAR     64  28  25 SW5       30.00S
HARLOWTON        N/A     63  29  27 MISG      29.96S
LAUREL           N/A     68  30  24 CALM      29.91S
$$

REGIONAL REPORTS...DAKOTAS

CITY           SKY/WX    TMP DP  RH WIND       PRES   REMARKS
WILLISTON      CLEAR     69  54  58 S5        29.84F
MINOT          CLEAR     65  52  62 S6        29.85S
DICKINSON      CLEAR     62  53  72 S10       29.89F
BEACH          MOCLDY    64  48  55 SE12      29.90F
CROSBY           N/A     61  54  77 S10       29.82F
TIOGA            N/A     64  54  68 S13       29.87F
WATFORD CITY     N/A     66  52  59 SE9       29.84F
BISMARCK       CLEAR     61  55  81 CALM      29.91S
GRAND FORKS    CLEAR     61  58  90 SW3       29.84S
FARGO          CLEAR     65  61  87 SW7       29.88S
BUFFALO SD       N/A     67  48  50 SE15      29.86F
RAPID CITY     CLEAR     63  47  55 S8        29.98F
$$

REGIONAL REPORTS...WYOMING/IDAHO/WASHINGTON

CITY           SKY/WX    TMP DP  RH WIND       PRES   REMARKS
GILLETTE       CLEAR     71  39  31 S20       29.99F
SHERIDAN       CLEAR     56  45  66 CALM      29.96F
BUFFALO WY     CLEAR     70  34  26 W9        30.04F
CODY           CLEAR     74  34  23 SW9       30.06S
YELLOWSTONE LA   N/A     43  36  76 W3        30.32S
IDAHO FALLS    CLEAR     61  37  41 SW6       30.08F
SALMON         CLOUDY    61  40  45 CALM      30.03R
BOISE          CLEAR     71  29  21 E5        29.98R
SPOKANE        PTCLDY    68  46  45 W14       29.94F
$$

REGIONAL REPORTS...ALBERTA

CITY           SKY/WX    TMP DP  RH WIND       PRES   REMARKS
EDMONTON       CLOUDY    50  50 100 W6        29.86F
CALGARY        MOCLDY    57  46  67 N28G36    29.88R SMOKE
LETHBRIDGE     CLEAR     72  39  30 W21G26    29.78R
MEDICINE HAT   CLEAR     66  43  42 S10       29.69S
$$

REGIONAL REPORTS...SASKATCHEWAN

CITY           SKY/WX    TMP DP  RH WIND       PRES   REMARKS
SWIFT CURRENT  CLEAR     66  41  39 SW10      29.69S
REGINA         MOCLDY    63  45  51 SE13      29.72F
SASKATOON      MOCLDY    68  50  52 E14       29.66F
$$




USA.gov is the U.S. government's official web portal to all federal, state and local government web resources and services.